Location: Unspecified
(41.9922°N, 0.0000°E)
Time: 03:43:33
(UTC+00:00)

STRAND 1 - Visible Passes

Search period start: 04 April 2026 00:00
Search period end: 14 April 2026 00:00
Orbit: 761 x 775 km, 98.4° (Epoch: 28 March)

Date Brightness Start Highest point End Pass type
(mag) Time Alt. Az. Time Alt. Az. Time Alt. Az.
4 Apr ? 04:35:21 10° SSE 04:40:17 54° ENE 04:45:13 10° N visible
5 Apr ? 04:00:26 10° ESE 04:04:34 26° ENE 04:08:42 10° N visible
5 Apr ? 19:27:42 10° NNW 19:30:40 16° WNW 19:33:38 10° W visible
6 Apr ? 03:26:51 10° E 03:29:03 13° ENE 03:31:16 10° NNE visible
6 Apr ? 05:02:18 10° SSE 05:07:23 85° WSW 05:12:29 10° NNW visible
6 Apr ? 18:50:39 10° N 18:55:06 32° WNW 18:59:32 10° SW visible
7 Apr ? 04:26:44 10° SE 04:31:32 45° ENE 04:36:20 10° N visible
8 Apr ? 03:52:03 10° ESE 03:55:52 22° ENE 03:59:42 10° NNE visible
8 Apr ? 19:18:32 10° NNW 19:22:00 19° WNW 19:25:27 10° WSW visible
9 Apr ? 03:19:19 10° ENE 03:20:24 11° ENE 03:21:31 10° NE visible
9 Apr ? 04:53:33 10° SSE 04:58:36 80° ENE 05:03:41 10° N visible
10 Apr ? 04:18:10 10° SE 04:22:48 37° ENE 04:27:26 10° N visible
10 Apr ? 19:47:35 10° NW 19:48:46 11° WNW 19:49:57 10° WNW visible
11 Apr ? 03:43:46 10° ESE 03:47:11 19° ENE 03:50:37 10° NNE visible
11 Apr ? 19:09:27 10° NNW 19:13:18 22° WNW 19:17:09 10° WSW visible
12 Apr ? 04:44:49 10° SSE 04:49:50 67° ENE 04:54:52 10° N visible
13 Apr ? 04:09:39 10° SE 04:14:04 31° ENE 04:18:30 10° N visible
13 Apr ? 19:37:51 10° NNW 19:40:07 13° WNW 19:42:21 10° W visible
